EWG61L LIRQ-EDDL

Flight info

Callsign EWG61L
Flight time 1h 18m
Altitude 38000
Route LOMED DCT OSBUL DCT ABESI DCT SOSON DCT BEGAR DCT GTQ N852 DIK N853 ELDAR T857 BIKMU BIKMU1A
Aircraft A319/M-SDE3FGHIRWY/LB1

Departure

Time 2026-05-08 11:42
Airport Florence Airport, Peretola (LIRQ)

Arrival

Time 2026-05-08 13:00
Airport Düsseldorf Airport (EDDL)
Time Latitude Longitude Altitude Speed Heading
2026-05-08 11:07 43.80297 11.20031 126 ft 0 kts 159°
2026-05-08 11:30 43.80315 11.20023 125 ft 3 kts 170°
2026-05-08 11:30 43.80339 11.20021 127 ft 3 kts 188°
2026-05-08 11:30 43.80363 11.20028 127 ft 3 kts 195°
2026-05-08 11:30 43.80375 11.20032 127 ft 1 kts 189°
2026-05-08 11:35 43.80357 11.20017 128 ft 6 kts 226°
2026-05-08 11:36 43.80356 11.19969 130 ft 4 kts 294°
2026-05-08 11:36 43.80374 11.19943 131 ft 3 kts 316°
2026-05-08 11:36 43.80393 11.19934 132 ft 4 kts 359°
2026-05-08 11:36 43.80428 11.19947 132 ft 8 kts 16°
2026-05-08 11:37 43.80493 11.19972 133 ft 12 kts 15°
2026-05-08 11:37 43.80568 11.19998 133 ft 12 kts 13°
2026-05-08 11:37 43.80652 11.20026 132 ft 9 kts 14°
2026-05-08 11:37 43.80674 11.20034 132 ft 4 kts 14°
2026-05-08 11:38 43.80717 11.20064 132 ft 10 kts 40°
2026-05-08 11:38 43.80782 11.20162 132 ft 18 kts 47°
2026-05-08 11:38 43.80882 11.20317 128 ft 23 kts 48°
2026-05-08 11:38 43.80996 11.20495 124 ft 26 kts 48°
2026-05-08 11:39 43.81111 11.20673 127 ft 26 kts 48°
2026-05-08 11:39 43.81226 11.20852 132 ft 25 kts 48°
2026-05-08 11:39 43.81346 11.21037 132 ft 25 kts 48°
2026-05-08 11:39 43.81439 11.21181 133 ft 14 kts 47°
2026-05-08 11:40 43.81486 11.21271 132 ft 9 kts 68°
2026-05-08 11:40 43.81507 11.21333 137 ft 4 kts 33°
2026-05-08 11:40 43.81523 11.21320 137 ft 4 kts 296°
2026-05-08 11:40 43.81500 11.21274 133 ft 0 kts 229°
2026-05-08 11:41 43.81432 11.21168 133 ft 43 kts 228°
2026-05-08 11:41 43.81096 11.20650 127 ft 101 kts 229°
2026-05-08 11:41 43.80518 11.19760 147 ft 145 kts 228°
2026-05-08 11:41 43.79846 11.18718 539 ft 148 kts 230°
2026-05-08 11:42 43.79499 11.17360 898 ft 155 kts 271°
2026-05-08 11:42 43.79676 11.15888 1403 ft 157 kts 286°
2026-05-08 11:42 43.79886 11.14385 1931 ft 163 kts 279°
2026-05-08 11:42 43.80020 11.12782 2425 ft 172 kts 278°
2026-05-08 11:43 43.80138 11.11092 2947 ft 181 kts 277°
2026-05-08 11:43 43.80238 11.09307 3480 ft 190 kts 275°
2026-05-08 11:43 43.80323 11.07433 3990 ft 201 kts 275°
2026-05-08 11:43 43.80740 11.05543 4478 ft 213 kts 302°
2026-05-08 11:44 43.81825 11.04073 4929 ft 231 kts 330°
2026-05-08 11:44 43.83395 11.03366 5394 ft 253 kts 351°
2026-05-08 11:44 43.85200 11.03065 6075 ft 268 kts 354°
2026-05-08 11:44 43.87084 11.02805 6947 ft 275 kts 354°
2026-05-08 11:45 43.89003 11.02542 7842 ft 280 kts 353°
2026-05-08 11:45 43.90952 11.02259 8744 ft 284 kts 353°
2026-05-08 11:45 43.92935 11.01957 9645 ft 289 kts 353°
2026-05-08 11:45 43.94957 11.01635 10352 ft 300 kts 352°
2026-05-08 11:46 43.97114 11.01281 10657 ft 324 kts 352°
2026-05-08 11:46 43.99400 11.00897 10911 ft 346 kts 352°
2026-05-08 11:46 44.01798 11.00282 11463 ft 355 kts 343°
2026-05-08 11:46 44.04105 10.99027 12180 ft 358 kts 332°
2026-05-08 11:47 44.06244 10.97241 12924 ft 361 kts 326°
2026-05-08 11:47 44.08375 10.95360 13680 ft 364 kts 326°
2026-05-08 11:47 44.10526 10.93466 14363 ft 368 kts 326°
2026-05-08 11:47 44.12701 10.91553 15010 ft 371 kts 326°
2026-05-08 11:48 44.14894 10.89621 15652 ft 375 kts 326°
2026-05-08 11:48 44.17077 10.87692 16268 ft 378 kts 326°
2026-05-08 11:48 44.19307 10.85719 16921 ft 381 kts 326°
2026-05-08 11:48 44.21554 10.83728 17569 ft 385 kts 326°
2026-05-08 11:49 44.23825 10.81720 18228 ft 388 kts 326°
2026-05-08 11:49 44.26114 10.79694 18819 ft 391 kts 326°
2026-05-08 11:49 44.28422 10.77647 19375 ft 395 kts 326°
2026-05-08 11:49 44.30746 10.75581 19932 ft 398 kts 325°
2026-05-08 11:50 44.33087 10.73497 20492 ft 401 kts 325°
2026-05-08 11:50 44.35452 10.71393 21035 ft 404 kts 324°
2026-05-08 11:50 44.37804 10.69301 21526 ft 408 kts 324°
2026-05-08 11:50 44.40201 10.67168 22022 ft 410 kts 324°
2026-05-08 11:51 44.42621 10.65010 22506 ft 414 kts 324°
2026-05-08 11:51 44.45058 10.62835 22977 ft 417 kts 324°
2026-05-08 11:51 44.47510 10.60642 23427 ft 421 kts 323°
2026-05-08 11:51 44.49984 10.58421 23837 ft 424 kts 323°
2026-05-08 11:52 44.52481 10.56177 24204 ft 428 kts 323°
2026-05-08 11:52 44.54995 10.53918 24565 ft 431 kts 323°
2026-05-08 11:52 44.57524 10.51641 24941 ft 433 kts 323°
2026-05-08 11:52 44.60033 10.49384 25306 ft 436 kts 324°
2026-05-08 11:53 44.62598 10.47078 25682 ft 439 kts 324°
2026-05-08 11:53 44.65181 10.44761 26045 ft 442 kts 324°
2026-05-08 11:53 44.67778 10.42430 26416 ft 444 kts 324°
2026-05-08 11:53 44.70389 10.40078 26788 ft 447 kts 324°
2026-05-08 11:54 44.73010 10.37709 27145 ft 449 kts 324°
2026-05-08 11:54 44.75646 10.35321 27493 ft 452 kts 324°
2026-05-08 11:54 44.78295 10.32915 27858 ft 454 kts 323°
2026-05-08 11:54 44.80954 10.30499 28209 ft 456 kts 324°
2026-05-08 11:55 44.83631 10.28067 28551 ft 459 kts 324°
2026-05-08 11:55 44.86323 10.25620 28871 ft 461 kts 323°
2026-05-08 11:55 44.88985 10.23195 29196 ft 464 kts 323°
2026-05-08 11:55 44.91701 10.20719 29508 ft 466 kts 323°
2026-05-08 11:56 44.94436 10.18220 29810 ft 469 kts 323°
2026-05-08 11:56 44.97180 10.15709 30147 ft 471 kts 323°
2026-05-08 11:56 44.99926 10.13194 30525 ft 470 kts 323°
2026-05-08 11:56 45.02673 10.10683 30900 ft 470 kts 323°
2026-05-08 11:57 45.05416 10.08173 31263 ft 470 kts 323°
2026-05-08 11:57 45.08163 10.05657 31624 ft 470 kts 323°
2026-05-08 11:57 45.10906 10.03141 32017 ft 470 kts 323°
2026-05-08 11:57 45.13645 10.00625 32424 ft 469 kts 322°
2026-05-08 11:58 45.16385 9.98105 32814 ft 469 kts 322°
2026-05-08 11:58 45.19079 9.95619 33210 ft 469 kts 322°
2026-05-08 11:58 45.21811 9.93091 33630 ft 468 kts 322°
2026-05-08 11:59 45.27261 9.88036 34402 ft 467 kts 322°
2026-05-08 11:59 45.29979 9.85518 34783 ft 466 kts 322°
2026-05-08 11:59 45.32684 9.83014 35183 ft 464 kts 322°
2026-05-08 11:59 45.35384 9.80513 35573 ft 462 kts 322°
2026-05-08 12:00 45.38067 9.78020 35956 ft 460 kts 322°
2026-05-08 12:00 45.40745 9.75531 36318 ft 458 kts 322°
2026-05-08 12:00 45.43375 9.73085 36670 ft 457 kts 322°
2026-05-08 12:00 45.46026 9.70612 37016 ft 455 kts 322°
2026-05-08 12:01 45.48670 9.68144 37354 ft 454 kts 322°
2026-05-08 12:01 45.51305 9.65678 37688 ft 452 kts 322°
2026-05-08 12:01 45.53928 9.63214 37969 ft 452 kts 322°
2026-05-08 12:01 45.56546 9.60748 38031 ft 449 kts 322°
2026-05-08 12:02 45.61747 9.55853 38030 ft 447 kts 322°
2026-05-08 12:02 45.66944 9.50972 38037 ft 447 kts 322°
2026-05-08 12:03 45.72099 9.46127 38047 ft 447 kts 322°
2026-05-08 12:03 45.77283 9.41223 38087 ft 446 kts 322°
2026-05-08 12:04 45.82461 9.36308 38094 ft 446 kts 322°
2026-05-08 12:04 45.87634 9.31390 38093 ft 446 kts 322°
2026-05-08 12:05 45.92774 9.26505 38094 ft 446 kts 322°
2026-05-08 12:05 45.97950 9.21579 38096 ft 446 kts 322°
2026-05-08 12:06 46.03119 9.16642 38098 ft 447 kts 322°
2026-05-08 12:06 46.08295 9.11672 38107 ft 447 kts 322°
2026-05-08 12:07 46.13463 9.06706 38088 ft 446 kts 322°
2026-05-08 12:07 46.18586 9.01755 38085 ft 446 kts 322°
2026-05-08 12:08 46.23697 8.96659 38091 ft 447 kts 321°
2026-05-08 12:08 46.28791 8.91527 38090 ft 447 kts 321°
2026-05-08 12:09 46.33897 8.86405 38086 ft 447 kts 321°
2026-05-08 12:09 46.38967 8.81324 38083 ft 446 kts 321°
2026-05-08 12:10 46.44069 8.76209 38079 ft 446 kts 321°
2026-05-08 12:10 46.49161 8.71083 38077 ft 445 kts 321°
2026-05-08 12:11 46.54243 8.65938 38077 ft 445 kts 321°
2026-05-08 12:11 46.59323 8.60784 38086 ft 445 kts 321°
2026-05-08 12:12 46.64714 8.56372 38072 ft 449 kts 329°
2026-05-08 12:12 46.70265 8.52182 38059 ft 449 kts 329°
2026-05-08 12:13 46.75814 8.47972 38063 ft 450 kts 328°
2026-05-08 12:13 46.81359 8.43748 38055 ft 450 kts 329°
2026-05-08 12:14 46.86909 8.39517 38063 ft 450 kts 329°
2026-05-08 12:14 46.92414 8.35310 38065 ft 450 kts 328°
2026-05-08 12:15 46.97956 8.31056 38065 ft 449 kts 328°
2026-05-08 12:15 47.03490 8.26803 38067 ft 449 kts 328°
2026-05-08 12:16 47.08746 8.22758 38073 ft 450 kts 328°
2026-05-08 12:16 47.14285 8.18482 38073 ft 450 kts 328°
2026-05-08 12:17 47.19781 8.14237 38071 ft 449 kts 329°
2026-05-08 12:17 47.25312 8.09945 38069 ft 449 kts 328°
2026-05-08 12:18 47.30840 8.05647 38067 ft 449 kts 329°
2026-05-08 12:18 47.36361 8.01344 38063 ft 449 kts 328°
2026-05-08 12:19 47.41886 7.97024 38062 ft 449 kts 328°
2026-05-08 12:19 47.47406 7.92701 38065 ft 449 kts 329°
2026-05-08 12:20 47.52892 7.88406 38064 ft 449 kts 329°
2026-05-08 12:20 47.58412 7.84062 38067 ft 449 kts 328°
2026-05-08 12:21 47.63931 7.79704 38068 ft 449 kts 329°
2026-05-08 12:21 47.69455 7.75343 38073 ft 450 kts 329°
2026-05-08 12:22 47.74973 7.70979 38069 ft 450 kts 328°
2026-05-08 12:22 47.80494 7.66591 38072 ft 450 kts 329°
2026-05-08 12:23 47.85975 7.62230 38074 ft 450 kts 329°
2026-05-08 12:23 47.91484 7.57834 38070 ft 450 kts 329°
2026-05-08 12:24 47.97013 7.53467 38077 ft 450 kts 329°
2026-05-08 12:24 48.02553 7.49114 38076 ft 449 kts 329°
2026-05-08 12:25 48.08083 7.44764 38077 ft 449 kts 329°
2026-05-08 12:25 48.13605 7.40390 38078 ft 449 kts 329°
2026-05-08 12:26 48.19080 7.36032 38077 ft 449 kts 329°
2026-05-08 12:26 48.24593 7.31642 38076 ft 448 kts 329°
2026-05-08 12:27 48.30105 7.27248 38079 ft 448 kts 329°
2026-05-08 12:27 48.35603 7.22842 38077 ft 448 kts 329°
2026-05-08 12:28 48.41067 7.18465 38078 ft 448 kts 329°
2026-05-08 12:28 48.46571 7.14051 38078 ft 448 kts 329°
2026-05-08 12:29 48.52064 7.09629 38077 ft 448 kts 329°
2026-05-08 12:29 48.57557 7.05185 38083 ft 448 kts 329°
2026-05-08 12:30 48.63043 7.00742 38080 ft 447 kts 329°
2026-05-08 12:30 48.68527 6.96298 38080 ft 447 kts 329°
2026-05-08 12:31 48.73969 6.91868 38083 ft 447 kts 329°
2026-05-08 12:31 48.79438 6.87400 38076 ft 446 kts 329°
2026-05-08 12:32 48.84906 6.82924 38080 ft 447 kts 329°
2026-05-08 12:32 48.90376 6.78447 38080 ft 446 kts 329°
2026-05-08 12:33 48.95840 6.73955 38082 ft 446 kts 329°
2026-05-08 12:33 49.01423 6.69797 38087 ft 448 kts 334°
2026-05-08 12:34 49.07105 6.66061 38088 ft 448 kts 334°
2026-05-08 12:34 49.12827 6.62295 38093 ft 448 kts 334°
2026-05-08 12:35 49.18545 6.58511 38096 ft 448 kts 334°
2026-05-08 12:35 49.24253 6.54707 38091 ft 447 kts 333°
2026-05-08 12:36 49.29962 6.50905 38093 ft 447 kts 333°
2026-05-08 12:36 49.35672 6.47094 38094 ft 447 kts 333°
2026-05-08 12:37 49.41343 6.43171 38099 ft 447 kts 332°
2026-05-08 12:37 49.46918 6.39074 38096 ft 447 kts 332°
2026-05-08 12:38 49.49742 6.37071 37838 ft 447 kts 333°
2026-05-08 12:38 49.52602 6.35171 37570 ft 448 kts 334°
2026-05-08 12:38 49.55482 6.33347 37306 ft 448 kts 335°
2026-05-08 12:38 49.58378 6.31549 37043 ft 449 kts 335°
2026-05-08 12:39 49.61278 6.29744 36787 ft 450 kts 335°
2026-05-08 12:39 49.64176 6.27913 36535 ft 450 kts 335°
2026-05-08 12:39 49.67060 6.26031 36284 ft 450 kts 334°
2026-05-08 12:39 49.69932 6.24092 36034 ft 451 kts 333°
2026-05-08 12:40 49.72800 6.22115 35788 ft 451 kts 333°
2026-05-08 12:40 49.75663 6.20130 35539 ft 452 kts 333°
2026-05-08 12:40 49.78538 6.18146 35306 ft 452 kts 333°
2026-05-08 12:40 49.81419 6.16173 35070 ft 453 kts 333°
2026-05-08 12:41 49.84317 6.14416 34831 ft 456 kts 340°
2026-05-08 12:41 49.87415 6.13309 34502 ft 458 kts 349°
2026-05-08 12:41 49.90624 6.12934 33506 ft 469 kts 358°
2026-05-08 12:41 49.93903 6.12991 32543 ft 473 kts 359°
2026-05-08 12:42 49.97207 6.13046 31547 ft 477 kts 359°
2026-05-08 12:42 50.00543 6.13090 30478 ft 482 kts 359°
2026-05-08 12:42 50.03904 6.13119 29471 ft 482 kts 359°
2026-05-08 12:42 50.07273 6.13135 28143 ft 487 kts 359°
2026-05-08 12:43 50.10658 6.13144 26969 ft 487 kts 359°
2026-05-08 12:43 50.14047 6.13152 26110 ft 482 kts 359°
2026-05-08 12:43 50.17375 6.13164 25349 ft 475 kts 359°
2026-05-08 12:43 50.20663 6.13179 24574 ft 469 kts 359°
2026-05-08 12:44 50.23905 6.13198 23809 ft 463 kts 359°
2026-05-08 12:44 50.27068 6.13218 22978 ft 458 kts 359°
2026-05-08 12:44 50.30222 6.13373 22275 ft 450 kts
2026-05-08 12:44 50.33301 6.14075 21554 ft 444 kts
2026-05-08 12:45 50.36328 6.14833 20854 ft 437 kts
2026-05-08 12:45 50.39301 6.15581 20175 ft 430 kts
2026-05-08 12:45 50.42239 6.16326 19530 ft 424 kts
2026-05-08 12:45 50.45134 6.17060 18904 ft 419 kts
2026-05-08 12:46 50.47995 6.17786 18296 ft 414 kts
2026-05-08 12:46 50.50786 6.18494 17670 ft 409 kts
2026-05-08 12:46 50.53577 6.19200 17098 ft 403 kts
2026-05-08 12:46 50.56325 6.19897 16518 ft 397 kts
2026-05-08 12:47 50.59032 6.20585 15937 ft 392 kts
2026-05-08 12:47 50.61707 6.21261 15349 ft 386 kts
2026-05-08 12:47 50.64343 6.21926 14746 ft 382 kts
2026-05-08 12:47 50.66950 6.22586 14150 ft 377 kts
2026-05-08 12:48 50.69518 6.23349 13487 ft 375 kts 14°
2026-05-08 12:48 50.71942 6.24775 12867 ft 371 kts 25°
2026-05-08 12:48 50.74136 6.26871 12245 ft 367 kts 36°
2026-05-08 12:48 50.76057 6.29495 11623 ft 364 kts 43°
2026-05-08 12:49 50.77879 6.32155 11034 ft 359 kts 42°
2026-05-08 12:49 50.79678 6.34773 10879 ft 343 kts 42°
2026-05-08 12:49 50.81394 6.37271 10751 ft 328 kts 42°
2026-05-08 12:49 50.83039 6.39668 10629 ft 315 kts 42°
2026-05-08 12:50 50.84622 6.41972 10502 ft 304 kts 42°
2026-05-08 12:50 50.86162 6.44215 10248 ft 298 kts 42°
2026-05-08 12:50 50.87675 6.46424 10030 ft 294 kts 43°
2026-05-08 12:50 50.89176 6.48620 9901 ft 293 kts 43°
2026-05-08 12:51 50.90670 6.50812 9723 ft 294 kts 43°
2026-05-08 12:51 50.93696 6.55260 8594 ft 303 kts 43°
2026-05-08 12:51 50.95274 6.57579 7754 ft 315 kts 43°
2026-05-08 12:52 50.96895 6.59962 7250 ft 315 kts 43°
2026-05-08 12:52 50.99982 6.64510 6951 ft 291 kts 43°
2026-05-08 12:52 51.01435 6.66657 6829 ft 280 kts 43°
2026-05-08 12:53 51.02844 6.68722 6671 ft 272 kts 40°
2026-05-08 12:53 51.04513 6.70022 6370 ft 269 kts
2026-05-08 12:53 51.06302 6.69558 6178 ft 260 kts 330°
2026-05-08 12:53 51.07556 6.67638 5965 ft 254 kts 302°
2026-05-08 12:54 51.08411 6.65199 5716 ft 251 kts 297°
2026-05-08 12:54 51.09225 6.62757 5466 ft 248 kts 297°
2026-05-08 12:54 51.10026 6.60341 5220 ft 245 kts 297°
2026-05-08 12:54 51.10829 6.57953 4902 ft 246 kts 300°
2026-05-08 12:55 51.11936 6.55893 4593 ft 244 kts 320°
2026-05-08 12:55 51.13357 6.54561 4346 ft 232 kts 339°
2026-05-08 12:55 51.14873 6.54025 4136 ft 217 kts 357°
2026-05-08 12:55 51.16286 6.54194 4056 ft 198 kts 13°
2026-05-08 12:56 51.17567 6.54913 3970 ft 195 kts 27°
2026-05-08 12:56 51.18672 6.56083 3642 ft 189 kts 41°
2026-05-08 12:56 51.19540 6.57615 3278 ft 185 kts 53°
2026-05-08 12:56 51.20326 6.59254 2814 ft 187 kts 52°
2026-05-08 12:57 51.21107 6.60879 2480 ft 181 kts 52°
2026-05-08 12:57 51.21856 6.62439 2217 ft 172 kts 52°
2026-05-08 12:57 51.22552 6.63890 1989 ft 158 kts 52°
2026-05-08 12:57 51.23184 6.65210 1785 ft 148 kts 52°
2026-05-08 12:58 51.23800 6.66495 1585 ft 144 kts 52°
2026-05-08 12:58 51.24407 6.67762 1413 ft 144 kts 52°
2026-05-08 12:58 51.24992 6.68989 1226 ft 135 kts 53°
2026-05-08 12:58 51.25539 6.70170 1020 ft 131 kts 54°
2026-05-08 12:59 51.26086 6.71312 822 ft 129 kts 52°
2026-05-08 12:59 51.26645 6.72417 640 ft 127 kts 51°
2026-05-08 12:59 51.27178 6.73535 474 ft 125 kts 54°
2026-05-08 12:59 51.27704 6.74649 307 ft 126 kts 53°
2026-05-08 13:00 51.28231 6.75752 153 ft 124 kts 53°
2026-05-08 13:00 51.28701 6.76746 128 ft 94 kts 53°
2026-05-08 13:00 51.28987 6.77350 129 ft 29 kts 52°
2026-05-08 13:00 51.29030 6.77507 129 ft 16 kts 101°
2026-05-08 13:01 51.28972 6.77610 127 ft 9 kts 143°
2026-05-08 13:01 51.28925 6.77650 128 ft 8 kts 175°
2026-05-08 13:01 51.28875 6.77586 129 ft 12 kts 232°
2026-05-08 13:01 51.28818 6.77467 129 ft 15 kts 232°
2026-05-08 13:02 51.28748 6.77321 128 ft 18 kts 232°
2026-05-08 13:02 51.28667 6.77151 127 ft 21 kts 233°
2026-05-08 13:02 51.28575 6.76957 129 ft 22 kts 232°
2026-05-08 13:02 51.28482 6.76761 127 ft 24 kts 232°
2026-05-08 13:03 51.28388 6.76564 123 ft 21 kts 232°
2026-05-08 13:03 51.28295 6.76369 127 ft 22 kts 233°
2026-05-08 13:03 51.28232 6.76243 128 ft 11 kts 219°
2026-05-08 13:03 51.28166 6.76276 125 ft 13 kts 142°
2026-05-08 13:04 51.28114 6.76393 128 ft 13 kts 130°
2026-05-08 13:04 51.28053 6.76460 127 ft 9 kts 147°
2026-05-08 13:04 51.28028 6.76506 128 ft 5 kts 99°
2026-05-08 13:04 51.28028 6.76526 128 ft 1 kts 87°
2026-05-08 13:05 51.28029 6.76535 127 ft 0 kts 88°